Regional Weather Roundup
Issued by NWS

Home | Current Version | Previous Version | Text Only | Print | Product List | Glossary Off
Versions: 1 2 3 4 5 6 7 8 9 10 11 12 13 14 15 16 17 18 19 20 21 22 23 24 25 26 27 28 29 30 31 32 33 34 35 36 37 38 39 40 41 42 43 44 45 46 47 48 49 50

000
ASUS43 KBIS 190310
RWRND

NORTH DAKOTA REGIONAL WEATHER ROUNDUP
NATIONAL WEATHER SERVICE BISMARCK ND
1000 PM CDT SAT APR 18 2015

NOTE: "FAIR" INDICATES FEW OR NO CLOUDS BELOW 12,000 FEET WITH NO
SIGNIFICANT WEATHER AND/OR OBSTRUCTIONS TO VISIBILITY.


NDZ001>003-009>011-017-190400-
NORTHWEST NORTH DAKOTA

CITY           SKY/WX    TMP DP  RH WIND       PRES   REMARKS
WILLISTON      MOCLDY    50  26  39 NW22G31   30.02R
MINOT          LGT RAIN  49  45  86 SW6       29.93R
MINOT AFB      LGT RAIN  48  48 100 SW5       29.92R
$$

NDZ018>021-031>035-040>046-190400-
SOUTHWEST NORTH DAKOTA

CITY           SKY/WX    TMP DP  RH WIND       PRES   REMARKS
BISMARCK       CLOUDY    49  44  83 W7        29.93S
DICKINSON      LGT RAIN  48  42  80 N7        29.97R
GARRISON         N/A     48  46  93 N14       29.93R
HETTINGER ARPT RAIN      47  44  90 N9        29.97R FOG
$$

NDZ004>008-012>016-024-026-027-054-190400-
NORTHEAST NORTH DAKOTA

CITY           SKY/WX    TMP DP  RH WIND       PRES   REMARKS
GRAND FORKS    CLOUDY    55  33  43 CALM      29.83F
GRND FRKS AFB  CLEAR     59  29  31 SE7       29.83F
DEVILS LAKE    CLOUDY    55  32  41 W10       29.85F
$$

NDZ022-023-025-028>030-036>039-047>053-190400-
SOUTHEAST NORTH DAKOTA

CITY           SKY/WX    TMP DP  RH WIND       PRES   REMARKS
FARGO          CLOUDY    65  31  28 SE14      29.83F
JAMESTOWN      CLOUDY    61  32  33 W13       29.84F
$$




USA.gov is the U.S. government's official web portal to all federal, state and local government web resources and services.